Airfield :
LOGIN :

Register | Disclaimer

   EN    FR    IT 

 










Legend :    VFR   Marginal VFR   IFR   Intensive IFR   Very Intensive IFR
Visi :
Ceiling :
>= 8 km
>= 3000ft
5 to 8 km
1000 to 3000 ft
1500m to 5 km
500 to 1000 ft
800 to 1500m
200 to 500 ft
< 800m
< 200 ft
Symbols :   Thunderstorms  Fog  Heavy snow  Heavy precipitations  Wind > 20 kt
SIGMETs :     Misc.  Thunderstorms  Icing  Turbulence  Mountain Waves  Volcanic Ashes







- Airport Elevation : 204 ft
- IATA code : AGF
- Download approach charts


LFBA - Agen

CURRENT METAR :
  • 221400Z AUTO 05005KT 350V110 CAVOK 25/14 Q1023 NOSIG

EXPIRED METARs :
  • 221330Z AUTO 36005KT 320V050 CAVOK 24/14 Q1023 NOSIG
  • 221300Z AUTO 01005KT 330V070 CAVOK 23/14 Q1023 NOSIG
  • 221230Z AUTO 02004KT 330V080 CAVOK 23/14 Q1023 NOSIG
  • 221200Z AUTO 34004KT 270V040 CAVOK 22/14 Q1024 NOSIG
  • 221130Z AUTO 04004KT 330V100 CAVOK 21/14 Q1024 NOSIG

TAF TAF LFBA
Valid from the 22 at 15:00 until the 23 at 00:00 UTC


221400Z 2215/2224 05006KT CAVOK
No reported NOTAMs for that airfield.



MET'MAP, your aeronautical weather chart ! - Copyright ORBIFLY December 2007 - Disclaimer

ORBIFLY MET'MAP TEAM :

Programming & Development : Alexandra Zaïnal
Concept & Development : Baudouin d'Aumeries
Co-Development & Prog : Marc-Olivier Méhu
Technical & hardware support : Manuel Goepfert

Contact : metmap@orbifly.com




SOURCES & CREDITS :

   NOAA